Regional Weather Roundup
Issued by NWS Charleston, SC

Current Version | Previous Version | Graphics & Text | Print | Product List | Glossary On
Versions: 1 2 3 4 5 6 7 8 9 10 11 12 13 14 15 16 17 18 19 20 21 22 23 24 25 26 27 28 29 30 31 32 33 34 35 36 37 38 39 40 41 42 43 44 45 46 47 48 49 50
000 ASUS42 KCHS 252312 RWRCHS REGIONAL WEATHER ROUNDUP NATIONAL WEATHER SERVICE CHARLESTON SC 700 PM EDT MON MAY 25 2015 NOTE: "FAIR" INDICATES FEW OR NO CLOUDS BELOW 12,000 FEET WITH NO SIGNIFICANT WEATHER AND/OR OBSTRUCTIONS TO VISIBILITY. NOT ALL STATIONS ARE QUALITY CONTROLLED BY THE NATIONAL WEATHER SERVICE. USE DATA WITH CAUTION...ESPECIALLY DEWPOINT OBSERVATIONS. SCZ027-030-031-034>040-042>050-260000- ...SOUTHEAST SOUTH CAROLINA... CITY SKY/WX TMP DP RH WIND PRES REMARKS N CHARLESTON MOSUNNY 78 66 66 SE10 30.26R WATERFRONT PAR N/A 78 70 76 E12 30.23S MOUNT PLEASANT LGT RAIN 79 70 73 E8 30.26S JOHNS ISLAND PTCLDY 79 70 73 E9 30.26S PINOPOLIS N/A 84 66 54 VRB3 30.16F MONCKS CORNER FAIR 79 66 65 SE6 30.26R SUMMERVILLE FAIR 81 68 65 SE7 30.26S BEAUFORT MCAS MOSUNNY 78 70 76 E10 30.24S BEAUFORT ARPT FAIR 79 70 73 E8 30.24S HILTON HEAD IS MOSUNNY 77 70 78 NE8 30.25F WALTERBORO CLEAR 79 68 69 SE9 30.25S ALLENDALE CLOUDY 81 68 65 SE9 30.22S ...SOUTHERN MIDLANDS AND PEE DEE... CITY SKY/WX TMP DP RH WIND PRES REMARKS GEORGETOWN NOT AVBL KINGSTREE NOT AVBL ORANGEBURG MOSUNNY 80 66 62 SE8 30.24S BARNWELL CLOUDY 82 66 57 SE8 30.23S AIKEN MOCLDY 82 59 44 SE9 30.25S MANNING FAIR 79 63 57 SE7 30.25S COLUMBIA MOSUNNY 83 63 50 E13 30.22S SUMTER NOT AVBL FLORENCE SUNNY 81 63 54 S10 30.25S MYRTLE BEACH N/A 77 64 65 SE10 30.30F N MYRTLE BEACH SUNNY 76 64 66 SE5 30.28F $$ GAZ063-065-086>088-099>101-113>116-118-119-134>141-150-260000- ...SOUTHEAST GEORGIA... CITY SKY/WX TMP DP RH WIND PRES REMARKS SAVANNAH ARPT PTSUNNY 80 67 64 E13 30.24R HUNTER AAF NOT AVBL FORT STEWART MOSUNNY 81 68 64 E14 30.20F STATESBORO PTSUNNY 78 72 80 SE5 30.22F SYLVANIA MOCLDY 81 71 71 SE5 30.24R CLAXTON FAIR 79 70 73 E6 30.21F ...CSRA...CENTRAL AND FAR SOUTHEAST GEORGIA... CITY SKY/WX TMP DP RH WIND PRES REMARKS THOMSON PTSUNNY 86 69 56 SE12G18 30.25S HX 90 AUGUSTA-BUSH MOSUNNY 82 67 60 SE12 30.20S AUGUSTA-DANIEL PTSUNNY 84 65 52 SE15G22 30.22R SWAINSBORO CLOUDY 82 72 69 SE12 30.22S VIDALIA PTSUNNY 81 72 74 E6 30.21S EASTMAN TSTM 72 72 100 E6 30.23R VSB 3/4 HAZLEHURST FAIR 83 72 67 E7 30.19R ALMA PTSUNNY 82 69 64 E9 30.19R WAYCROSS CLOUDY 82 73 72 E12 30.19R JESUP FAIR 82 72 69 SE7 30.21S BAXLEY FAIR 82 72 69 E8 30.19R BRUNSWICK MOSUNNY 81 68 65 E9 30.22S SAINT SIMONS NOT AVBL $$ SCZ027-028-034-036>038-045-046-048>050-GAZ119-141-260000- ...LAKE AND SUPPLEMENTAL COASTAL OBSERVATIONS... STATION/POSITION TIME TEMP WIND PRES WAVE SWELL AIR SEA DIR/SP/G HT/PER HT/PER/DIR (UTC) (F) (DEG/KT/KT) (MB) (FT/S) (FT/S/D) UPR LAKE MARION NOT AVBL WINYAH BAY 2145 76 100/ 8 1024.0 LAKE MURRAY 2200 82 140/ 5/ 8 1022.7F ACE BASIN NERRS NOT AVBL FORT PULASKI 2200 77 78 70/ 13/ 15 1024.5S SAPELO ISLAND 2200 82 90/ 8 1023.0S $$ ANZ835-935-AMZ111-154-330-350-352-354-370-450-454-472-260000- ...C-MAN AND BUOY OBSERVATIONS... STATION/POSITION TIME TEMP WIND PRES WAVE SWELL AIR SEA DIR/SP/G HT/PER HT/PER/DIR (UTC) (F) (DEG/KT/KT) (MB) (FT/S) (FT/S/D) BUOY 41004 2250 76 76 90/ 12/ 14 1024.1F 4/ 6 3/ 6 BUOY 41008 2250 77 76 100/ 8/ 12 1023.6S 3/ 8 3/ 90/ 8 FOLLY BEACH CMAN 2300 76 100/ 11/ 12 1024.8F CAPERS NEARSHORE 2208 76 100/ 10/ 12 1024.8F FRIPP NEARSHORE 2200 77 90/ 12/ 14 1023.6F STATION/POSITION TIME TEMP WIND PRES WAVE SWELL AIR SEA DIR/SP/G HT/PER HT/PER/DIR (UTC) (F) (DEG/KT/KT) (MB) (FT/S) (FT/S/D) 5E ST. MARYS GA 2221 79 N/A 3/ 8 FRYING PAN BUOY 2250 76 75 140/ 10/ 12 1026.2F 3/ 6 2/130/ 6 BUOY 41025 2250 75 77 160/ 12/ 16 1026.7S 2/ 8 2/ 80/ 8 CAPE LOOKOUT NC 2300 74 160/ 7/ 9 1026.2R BUOY 41002 2250 75 75 130/ 12/ 14 1025.9F 3/ 6 2/100/ 6 BUOY 41010 2220 79 81 110/ 12/ 14 1022.9R ST AUGUSTINE FL 2300 78 79 100/ 13/ 14 1022.9S $$

USA.gov is the U.S. government's official web portal to all federal, state and local government web resources and services.